[[{"header":{"parameterUnit":"m.s-1","parameterCategory":1,"la1":30.2991,"la2":30.254,"lo1":-89.0895,"lo2":-89.0444,"dy":0.0017,"dx":0.0017,"nx":28,"ny":28,"refTime":"2024-05-02T21:00:00:Z","depth":0,"parameterNumber":2,"parameterNumberName":"U-component_of_WINDS"},"data":[0,0,0,0,0,0,0,0,0,0,0,0,0,0,0,0,0,0,0,0,0,0,0,0,0,0,0,0,0,0,0,0,0,0,0,0,0,0,0,0,0,0,0,0,0,0,0,0,0,0,0,0,0,0,0,0,0,0,-1.4264,-1.4264,0,-1.4188,-1.4187,-1.4186,-1.4097,-1.4095,-1.4094,-1.4093,-1.4015,-1.4015,-1.4014,0,0,0,0,0,0,0,0,0,0,0,0,0,-1.4334,-1.4333,-1.4264,-1.4264,-1.4263,-1.4188,-1.4187,-1.4186,-1.4097,-1.4095,-1.4093,-1.4092,-1.4016,-1.4015,-1.4014,0,0,0,0,0,0,0,0,0,0,0,0,0,-1.4286,-1.4333,-1.4265,-1.4209,-1.4203,-1.4188,-1.4187,-1.4186,-1.4097,-1.4095,-1.4093,-1.4091,-1.4016,-1.4015,-1.4014,-1.4048,0,0,-1.401,-1.401,0,0,0,0,0,0,0,0,-1.4289,-1.4283,-1.4218,-1.4213,-1.4206,-1.415,-1.4183,-1.414,-1.4098,-1.4137,-1.4092,-1.409,-1.4062,-1.4057,-1.4047,-1.4044,-1.4041,-1.401,-1.4009,-1.4009,-1.4008,0,0,0,0,0,0,0,-1.4292,-1.4286,-1.4234,-1.4217,-1.421,-1.4188,-1.4179,-1.4175,-1.4112,-1.4134,-1.4127,-1.4119,-1.4058,-1.4048,-1.4044,-1.404,-1.401,-1.4009,-1.4008,-1.4008,-1.4062,-1.4064,0,0,0,0,0,0,-1.4304,-1.4289,-1.4237,-1.4232,-1.4243,-1.4189,-1.4178,-1.417,-1.4112,-1.4101,-1.4121,-1.4115,-1.4051,-1.4046,-1.4041,-1.4078,-1.4009,-1.4008,-1.4007,-1.406,-1.4062,-1.4065,0,0,0,0,0,0,-1.4305,-1.43,-1.424,-1.4259,-1.4249,-1.419,-1.4181,-1.417,-1.4159,-1.4102,-1.4091,-1.4122,-1.4049,-1.4043,-1.4047,-1.4074,-1.4007,-1.4006,-1.4057,-1.4061,-1.4063,-1.4151,0,0,0,0,0,0,-1.4308,-1.4301,-1.4313,-1.426,-1.4249,-1.4246,-1.4183,-1.417,-1.4158,-1.4149,-1.41,-1.409,-1.4047,-1.4049,-1.4046,-1.4071,-1.4005,-1.4054,-1.4059,-1.4062,-1.4145,-1.4157,-1.4166,0,0,0,0,0,-1.4311,-1.434,-1.4314,-1.4308,-1.4262,-1.4248,-1.4242,-1.4191,-1.416,-1.4172,-1.4135,-1.4092,-1.4072,-1.405,-1.4046,-1.4071,-1.4053,-1.4057,-1.4062,-1.414,-1.4154,-1.4166,0,0,0,0,0,0,-1.4398,-1.4332,-1.4302,-1.4315,-1.4288,-1.4233,-1.4246,-1.4207,-1.4188,-1.4181,-1.412,-1.411,-1.4121,-1.4096,-1.4074,-1.4101,-1.4056,-1.406,-1.4117,-1.413,-1.414,-1.4146,-1.4004,0,0,0,0,0,-1.4419,-1.4412,-1.4355,-1.4373,-1.436,-1.4306,-1.4298,-1.4261,-1.4231,-1.4218,-1.4182,-1.4154,-1.4141,-1.4134,-1.4119,-1.4142,-1.413,-1.4157,-1.4168,-1.4176,-1.4181,-1.4191,-1.4203,-1.408,-1.408,-1.408,0,0,-1.4462,-1.4425,-1.4424,-1.4389,-1.4364,-1.4359,-1.4297,-1.4294,-1.429,-1.4218,-1.4219,-1.4192,-1.4157,-1.4171,-1.4175,-1.415,-1.4212,-1.4183,-1.419,-1.4189,-1.4197,-1.4209,-1.422,-1.4084,-1.4083,-1.4083,0,0,-1.4537,-1.4509,-1.452,-1.4496,-1.4458,-1.4422,-1.4425,-1.4376,-1.4355,-1.4355,-1.4302,-1.4297,-1.4276,-1.4253,-1.4239,-1.4308,-1.4268,-1.4305,-1.436,-1.4371,-1.4381,-1.4389,-1.4414,-1.4424,-1.431,-1.431,-1.431,0,-1.4595,-1.4585,-1.4531,-1.4532,-1.4518,-1.4454,-1.4465,-1.4445,-1.4404,-1.4397,-1.437,-1.4343,-1.4315,-1.4323,-1.434,-1.433,-1.4332,-1.431,-1.4384,-1.4391,-1.4398,-1.4422,-1.4431,-1.4315,-1.4314,-1.4314,-1.4313,0,-1.4658,-1.4652,-1.4666,-1.4629,-1.4617,-1.4624,-1.4571,-1.4566,-1.4532,-1.4499,-1.4501,-1.4465,-1.4442,-1.4441,-1.4407,-1.4444,-1.4431,-1.4395,-1.4348,-1.4416,-1.4436,-1.4445,-1.4321,-1.432,-1.4318,-1.4317,0,0,-1.4785,-1.4719,-1.4725,-1.4708,-1.4662,-1.4657,-1.4661,-1.4638,-1.4635,-1.461,-1.4612,-1.4597,-1.4564,-1.4548,-1.4511,-1.4521,-1.4579,-1.4484,-1.4483,-1.4503,-1.4619,-1.4646,-1.4657,-1.4553,-1.4554,-1.4555,-1.4622,0,-1.4852,-1.4854,-1.4807,-1.4823,-1.4817,-1.4757,-1.476,-1.4733,-1.4703,-1.4694,-1.4661,-1.4651,-1.4608,-1.4598,-1.4606,-1.4571,-1.4602,-1.4565,-1.4554,-1.4555,-1.4565,-1.4668,-1.4696,-1.476,-1.463,-1.4631,-1.4632,0,-1.493,-1.4909,-1.4925,-1.488,-1.4876,-1.488,-1.4856,-1.4848,-1.4817,-1.4794,-1.4778,-1.4736,-1.4737,-1.4694,-1.4695,-1.4672,-1.4665,-1.4647,-1.4649,-1.4645,-1.4597,-1.4667,-1.478,-1.479,-1.4644,-1.4643,-1.4642,0,-1.5021,-1.4997,-1.5004,-1.4991,-1.4938,-1.4943,-1.4921,-1.4888,-1.4878,-1.4857,-1.485,-1.4831,-1.482,-1.4806,-1.4761,-1.4733,-1.4769,-1.472,-1.475,-1.4752,-1.476,-1.476,-1.4873,-1.4756,-1.4756,-1.4756,-1.4756,0,-1.51,-1.5112,-1.5044,-1.5048,-1.506,-1.5006,-1.5019,-1.4992,-1.4963,-1.4961,-1.4908,-1.4908,-1.4848,-1.4841,-1.4805,-1.4813,-1.4808,-1.479,-1.4781,-1.4795,-1.4797,-1.4789,-1.4783,-1.4758,-1.4758,-1.4757,-1.4757,0,-1.5204,-1.5158,-1.5161,-1.5112,-1.51,-1.5111,-1.5069,-1.5071,-1.5038,-1.5036,-1.5033,-1.4981,-1.497,-1.4924,-1.4902,-1.4878,-1.4898,-1.4879,-1.4908,-1.4902,-1.4935,-1.4932,-1.5046,-1.5058,-1.4934,-1.4936,-1.4937,0,-1.5257,-1.5265,-1.5217,-1.5211,-1.5192,-1.5185,-1.5174,-1.5122,-1.5114,-1.508,-1.5086,-1.5071,-1.5056,-1.5042,-1.5003,-1.4987,-1.4967,-1.5008,-1.4964,-1.4979,-1.4968,-1.4968,-1.4969,-1.5017,-1.5019,-1.502,-1.5021,0,-1.5357,-1.5334,-1.5321,-1.5302,-1.5291,-1.5273,-1.5251,-1.525,-1.5192,-1.5186,-1.5174,-1.5163,-1.5141,-1.5127,-1.5104,-1.5083,-1.5043,-1.5036,-1.5042,-1.5056,-1.5073,-1.5065,-1.4934,-1.5033,-1.5032,-1.5031,-1.5031,-1.503,-1.5436,-1.5441,-1.5408,-1.5396,-1.5375,-1.5356,-1.5356,-1.5323,-1.5313,-1.5291,-1.5261,-1.5254,-1.5223,-1.5188,-1.517,-1.5164,-1.5142,-1.515,-1.5152,-1.5155,-1.5163,-1.5075,-1.516,-1.516,-1.5159,-1.5159,-1.5159,0,-1.5534,-1.551,-1.5499,-1.5471,-1.5462,-1.5426,-1.5401,-1.5396,-1.539,-1.5365,-1.5352,-1.5339,-1.5326,-1.5287,-1.527,-1.5273,-1.5254,-1.527,-1.5269,-1.5265,-1.5184,-1.518,-1.5285,-1.5285,-1.5285,-1.5285,-1.5285,-1.5285,-1.5583,-1.5589,-1.5563,-1.5559,-1.5534,-1.5527,-1.5516,-1.5499,-1.5479,-1.5467,-1.5456,-1.543,-1.54,-1.5381,-1.5367,-1.5356,-1.5352,-1.5375,-1.5358,-1.5283,-1.527,-1.5259,-1.5255,-1.5374,-1.5374,-1.5439,-1.544,-1.544]},{"header":{"parameterUnit":"m.s-1","parameterCategory":1,"la1":30.2991,"la2":30.254,"lo1":-89.0895,"lo2":-89.0444,"dy":0.0017,"dx":0.0017,"nx":28,"ny":28,"refTime":"2024-05-02T21:00:00:Z","depth":0,"parameterNumber":3,"parameterNumberName":"V-component_of_WINDS"},"data":[0,0,0,0,0,0,0,0,0,0,0,0,0,0,0,0,0,0,0,0,0,0,0,0,0,0,0,0,0,0,0,0,0,0,0,0,0,0,0,0,0,0,0,0,0,0,0,0,0,0,0,0,0,0,0,0,0,0,-0.161,-0.1609,0,-0.1536,-0.1535,-0.1534,-0.1515,-0.1516,-0.1516,-0.1517,-0.1438,-0.1436,-0.1433,0,0,0,0,0,0,0,0,0,0,0,0,0,-0.173,-0.1728,-0.161,-0.1609,-0.1608,-0.1536,-0.1535,-0.1534,-0.1515,-0.1516,-0.1516,-0.1517,-0.1439,-0.1436,-0.1433,0,0,0,0,0,0,0,0,0,0,0,0,0,-0.1669,-0.1727,-0.161,-0.159,-0.1587,-0.1536,-0.1535,-0.1534,-0.1515,-0.1516,-0.1516,-0.1517,-0.144,-0.1436,-0.1432,-0.1395,0,0,-0.1421,-0.1419,0,0,0,0,0,0,0,0,-0.1672,-0.1664,-0.1594,-0.1591,-0.1588,-0.1536,-0.1549,-0.1487,-0.1515,-0.1542,-0.1517,-0.1517,-0.147,-0.1464,-0.1448,-0.1392,-0.1388,-0.1421,-0.1418,-0.1417,-0.1416,0,0,0,0,0,0,0,-0.1677,-0.1667,-0.158,-0.1593,-0.1589,-0.1583,-0.1575,-0.1537,-0.1503,-0.154,-0.1538,-0.153,-0.1468,-0.1452,-0.1446,-0.1387,-0.1421,-0.1417,-0.1415,-0.1414,-0.1294,-0.1293,0,0,0,0,0,0,-0.1685,-0.1671,-0.1583,-0.1578,-0.1633,-0.158,-0.1572,-0.1552,-0.1503,-0.1497,-0.153,-0.153,-0.1458,-0.1451,-0.1443,-0.1395,-0.1417,-0.1413,-0.1411,-0.1295,-0.1293,-0.1292,0,0,0,0,0,0,-0.1687,-0.1677,-0.1586,-0.1624,-0.1612,-0.1578,-0.1555,-0.155,-0.1533,-0.1496,-0.1489,-0.1519,-0.1458,-0.1449,-0.1407,-0.1392,-0.1411,-0.1408,-0.1296,-0.1294,-0.1293,-0.1299,0,0,0,0,0,0,-0.1691,-0.1678,-0.1665,-0.1624,-0.161,-0.1552,-0.1555,-0.1548,-0.1527,-0.1526,-0.1484,-0.1478,-0.1458,-0.1413,-0.1403,-0.1387,-0.1405,-0.1297,-0.1295,-0.1293,-0.13,-0.1298,-0.1296,0,0,0,0,0,-0.1695,-0.1669,-0.1664,-0.1654,-0.1593,-0.1551,-0.1543,-0.1522,-0.1526,-0.1512,-0.1487,-0.1479,-0.1395,-0.1409,-0.1398,-0.138,-0.1298,-0.1295,-0.1293,-0.1301,-0.1298,-0.1296,0,0,0,0,0,0,-0.1709,-0.1664,-0.1658,-0.1618,-0.1589,-0.1548,-0.1529,-0.152,-0.1489,-0.1489,-0.1463,-0.1453,-0.1413,-0.1393,-0.1408,-0.134,-0.1346,-0.1342,-0.1355,-0.1353,-0.1351,-0.1356,-0.1402,0,0,0,0,0,-0.1707,-0.1678,-0.164,-0.1609,-0.1594,-0.1564,-0.1545,-0.1531,-0.15,-0.1487,-0.1459,-0.1428,-0.1394,-0.1372,-0.1339,-0.1297,-0.1286,-0.1279,-0.1277,-0.1276,-0.1272,-0.1246,-0.1242,-0.1286,-0.1286,-0.1286,0,0,-0.1703,-0.1675,-0.1658,-0.161,-0.1586,-0.1555,-0.1554,-0.1522,-0.1498,-0.1482,-0.144,-0.1419,-0.1382,-0.1339,-0.1319,-0.1321,-0.1258,-0.1273,-0.1273,-0.1269,-0.1243,-0.1239,-0.1236,-0.1284,-0.1284,-0.1285,0,0,-0.168,-0.1657,-0.1627,-0.1603,-0.1566,-0.1546,-0.1539,-0.1499,-0.1485,-0.1443,-0.1429,-0.14,-0.1343,-0.1317,-0.1296,-0.1261,-0.1251,-0.1251,-0.1241,-0.1215,-0.1212,-0.1209,-0.1194,-0.119,-0.1247,-0.1247,-0.1247,0,-0.168,-0.1634,-0.1613,-0.1581,-0.1559,-0.1543,-0.1512,-0.1489,-0.1443,-0.1428,-0.1431,-0.1358,-0.1332,-0.1281,-0.1273,-0.1257,-0.1246,-0.1255,-0.1214,-0.1211,-0.1207,-0.1193,-0.1188,-0.1247,-0.1247,-0.1247,-0.1247,0,-0.1634,-0.1602,-0.1583,-0.1539,-0.1515,-0.1484,-0.1456,-0.1434,-0.1422,-0.1401,-0.1358,-0.1326,-0.1285,-0.1272,-0.126,-0.1219,-0.1221,-0.122,-0.1225,-0.1204,-0.119,-0.1185,-0.1247,-0.1247,-0.1247,-0.1247,0,0,-0.1618,-0.1562,-0.1555,-0.1534,-0.1492,-0.1466,-0.1433,-0.1394,-0.1375,-0.1343,-0.1313,-0.1265,-0.1262,-0.1238,-0.1223,-0.1201,-0.1172,-0.1201,-0.12,-0.1195,-0.1123,-0.1124,-0.1118,-0.1166,-0.1165,-0.1164,-0.1126,0,-0.1588,-0.153,-0.1509,-0.146,-0.1429,-0.1413,-0.1383,-0.1353,-0.1332,-0.1302,-0.1278,-0.1244,-0.1244,-0.1229,-0.1207,-0.1181,-0.1157,-0.1183,-0.1136,-0.1135,-0.1145,-0.1111,-0.1112,-0.1077,-0.112,-0.112,-0.1119,0,-0.1546,-0.1515,-0.1463,-0.1422,-0.1408,-0.1383,-0.1344,-0.1316,-0.128,-0.1266,-0.1239,-0.1225,-0.1187,-0.1195,-0.1142,-0.116,-0.1139,-0.1123,-0.1122,-0.1115,-0.1125,-0.1103,-0.1066,-0.106,-0.1111,-0.1111,-0.1112,0,-0.1538,-0.1482,-0.1443,-0.1425,-0.1378,-0.136,-0.1339,-0.1304,-0.1282,-0.1247,-0.1232,-0.1194,-0.1172,-0.1142,-0.1117,-0.1125,-0.1065,-0.1072,-0.1051,-0.1051,-0.1038,-0.1039,-0.0996,-0.1027,-0.1027,-0.1027,-0.1028,0,-0.1506,-0.1474,-0.1438,-0.1414,-0.1377,-0.1353,-0.1316,-0.1294,-0.1263,-0.1233,-0.1217,-0.1189,-0.1158,-0.1125,-0.1105,-0.1063,-0.1053,-0.104,-0.1035,-0.104,-0.1042,-0.1026,-0.1027,-0.1026,-0.1026,-0.1027,-0.1027,0,-0.149,-0.1464,-0.142,-0.1379,-0.1368,-0.1342,-0.1306,-0.1281,-0.1259,-0.1221,-0.121,-0.1176,-0.1136,-0.1108,-0.1057,-0.1044,-0.0997,-0.0993,-0.101,-0.1007,-0.0987,-0.0989,-0.0931,-0.0921,-0.0961,-0.096,-0.096,0,-0.1471,-0.1446,-0.1402,-0.1381,-0.136,-0.1327,-0.1303,-0.1278,-0.1254,-0.121,-0.119,-0.1149,-0.1116,-0.1053,-0.1022,-0.0982,-0.0976,-0.0958,-0.0969,-0.0975,-0.0973,-0.0974,-0.0971,-0.0956,-0.0956,-0.0956,-0.0955,0,-0.1439,-0.1427,-0.1395,-0.1357,-0.133,-0.1299,-0.1267,-0.1251,-0.1219,-0.1193,-0.1152,-0.1126,-0.1074,-0.1033,-0.099,-0.0966,-0.0954,-0.0952,-0.0945,-0.095,-0.096,-0.0952,-0.1003,-0.0953,-0.0954,-0.0954,-0.0954,-0.0954,-0.142,-0.1396,-0.1361,-0.1324,-0.1298,-0.1269,-0.1243,-0.1218,-0.1184,-0.114,-0.1126,-0.1084,-0.1047,-0.0988,-0.0964,-0.0929,-0.093,-0.092,-0.0917,-0.0915,-0.0914,-0.0967,-0.0921,-0.0921,-0.0921,-0.0921,-0.0921,0,-0.1385,-0.1362,-0.1329,-0.1285,-0.1256,-0.1249,-0.1213,-0.1189,-0.1152,-0.1119,-0.1086,-0.1038,-0.0998,-0.0964,-0.0922,-0.09,-0.0894,-0.089,-0.089,-0.0885,-0.0916,-0.0926,-0.0896,-0.0896,-0.0896,-0.0896,-0.0896,-0.0896,-0.1364,-0.1323,-0.1307,-0.1252,-0.1228,-0.1187,-0.1167,-0.1139,-0.1113,-0.1061,-0.1027,-0.1006,-0.0971,-0.0926,-0.0888,-0.0879,-0.0863,-0.0861,-0.085,-0.088,-0.0883,-0.0885,-0.0894,-0.0858,-0.0858,-0.0821,-0.082,-0.082]}]]